^^
Saratoga-Weather Station Historical Data
Daily Summary for June 29, 2021 Units:  Metric    English   Both
Daily Weekly Monthly Yearly Custom
  High: Low: Average:
Temperature: 22.6 °C 14.7 °C 18.1 °C
Dew Point: 14.1 °C 11.5 °C 12.9 °C
Humidity: 90% 52% 73%
Wind Speed: 14.3km/h 0km/h 2.8km/h
Wind Gust: 24.1km/h - -
Wind- - WSW
Pressure: 1014.6 hPa 1011.9 hPa -
Precipitation: 0.0 mm    
Historical Graphs
 
 
Tabular Data for June 29, 2021
Time Temperature Dew Point Pressure Wind Wind Speed Wind Gust Humidity Rainfall Rate (Hourly) solar
00:01 15.1 °C 13.1 °C 1012.9 hPa Calm     88% 0.0 mm 0 W/m2
00:06 15.1 °C 13.3 °C 1012.9 hPa ENE 1.4 km/h 1.6 km/h 89% 0.0 mm 0 W/m2
00:11 15.1 °C 13.3 °C 1012.9 hPa Calm   3.2 km/h 89% 0.0 mm 0 W/m2
00:16 15.1 °C 13.3 °C 1012.9 hPa Calm   1.6 km/h 89% 0.0 mm 0 W/m2
00:21 15.1 °C 13.5 °C 1012.9 hPa Calm   1.6 km/h 90% 0.0 mm 0 W/m2
00:26 15.1 °C 13.3 °C 1012.9 hPa ENE 1.4 km/h 3.2 km/h 89% 0.0 mm 0 W/m2
00:31 15.2 °C 13.6 °C 1012.9 hPa Calm   1.6 km/h 90% 0.0 mm 0 W/m2
00:36 15.2 °C 13.4 °C 1012.9 hPa SSE 3.2 km/h 3.2 km/h 89% 0.0 mm 0 W/m2
00:41 15.3 °C 13.5 °C 1012.9 hPa Calm   3.2 km/h 89% 0.0 mm 0 W/m2
00:59 15.7 °C 13.5 °C 1012.5 hPa Calm     87% 0.0 mm 0 W/m2
01:04 15.7 °C 13.4 °C 1012.5 hPa Calm   3.2 km/h 86% 0.0 mm 0 W/m2
01:10 15.9 °C 13.4 °C 1012.5 hPa Calm   1.6 km/h 85% 0.0 mm 0 W/m2
01:15 16.1 °C 13.8 °C 1012.5 hPa Calm   3.2 km/h 86% 0.0 mm 0 W/m2
01:20 16.1 °C 13.2 °C 1012.5 hPa Calm   4.8 km/h 83% 0.0 mm 0 W/m2
01:25 16.2 °C 13.1 °C 1012.5 hPa Calm   3.2 km/h 82% 0.0 mm 0 W/m2
01:42 16.7 °C 13.2 °C 1012.5 hPa East 1.4 km/h 3.2 km/h 80% 0.0 mm 0 W/m2
01:47 17 °C 13.1 °C 1012.5 hPa North 1.4 km/h 4.8 km/h 78% 0.0 mm 0 W/m2
01:52 17.2 °C 13.3 °C 1012.5 hPa NNW 3.2 km/h 4.8 km/h 78% 0.0 mm 0 W/m2
01:57 17.3 °C 13.2 °C 1012.5 hPa NW 1.4 km/h 3.2 km/h 77% 0.0 mm 0 W/m2
02:02 17.4 °C 13.1 °C 1012.5 hPa SE 1.4 km/h 4.8 km/h 76% 0.0 mm 0 W/m2
02:22 17.4 °C 13.1 °C 1012.5 hPa WSW 1.4 km/h 4.8 km/h 76% 0.0 mm 0 W/m2
02:27 17.3 °C 13.2 °C 1012.5 hPa WNW 4.7 km/h 4.8 km/h 77% 0.0 mm 0 W/m2
02:32 17.2 °C 13.1 °C 1012.5 hPa West 3.2 km/h 9.7 km/h 77% 0.0 mm 0 W/m2
02:37 17.1 °C 13.2 °C 1012.5 hPa NNW 1.4 km/h 4.8 km/h 78% 0.0 mm 0 W/m2
02:42 16.9 °C 13 °C 1012.5 hPa Calm   4.8 km/h 78% 0.0 mm 0 W/m2
02:47 16.8 °C 13.1 °C 1012.5 hPa North 1.4 km/h 3.2 km/h 79% 0.0 mm 0 W/m2
02:52 16.7 °C 13 °C 1012.5 hPa NNE 3.2 km/h 3.2 km/h 79% 0.0 mm 0 W/m2
02:57 16.6 °C 12.9 °C 1012.5 hPa WNW 1.4 km/h 6.4 km/h 79% 0.0 mm 0 W/m2
03:02 16.5 °C 13 °C 1012.5 hPa North 3.2 km/h 4.8 km/h 80% 0.0 mm 0 W/m2
03:07 16.4 °C 12.9 °C 1012.2 hPa NE 1.4 km/h 4.8 km/h 80% 0.0 mm 0 W/m2
03:12 16.4 °C 12.9 °C 1012.2 hPa Calm   3.2 km/h 80% 0.0 mm 0 W/m2
03:17 16.4 °C 12.9 °C 1012.2 hPa Calm   4.8 km/h 80% 0.0 mm 0 W/m2
03:22 16.3 °C 13 °C 1012.2 hPa West 1.4 km/h 1.6 km/h 81% 0.0 mm 0 W/m2
03:27 16.3 °C 13 °C 1012.2 hPa NNW 3.2 km/h 4.8 km/h 81% 0.0 mm 0 W/m2
03:32 16.2 °C 12.9 °C 1012.2 hPa WNW 6.4 km/h 6.4 km/h 81% 0.0 mm 0 W/m2
03:37 16.2 °C 13.1 °C 1012.2 hPa WSW 1.4 km/h 1.6 km/h 82% 0.0 mm 0 W/m2
03:42 16.2 °C 13.1 °C 1012.2 hPa Calm   3.2 km/h 82% 0.0 mm 0 W/m2
03:47 16.1 °C 13 °C 1012.2 hPa Calm   4.8 km/h 82% 0.0 mm 0 W/m2
03:52 16.2 °C 13.1 °C 1012.2 hPa Calm     82% 0.0 mm 0 W/m2
03:57 16.1 °C 13 °C 1012.2 hPa WNW 1.4 km/h 3.2 km/h 82% 0.0 mm 0 W/m2
04:02 16.1 °C 13 °C 1012.2 hPa WSW 3.2 km/h 6.4 km/h 82% 0.0 mm 0 W/m2
04:07 16.2 °C 13.1 °C 1012.2 hPa Calm   3.2 km/h 82% 0.0 mm 0 W/m2
04:12 16.2 °C 13.1 °C 1012.2 hPa Calm   3.2 km/h 82% 0.0 mm 0 W/m2
04:17 16.2 °C 13.1 °C 1012.2 hPa Calm   3.2 km/h 82% 0.0 mm 0 W/m2
04:22 16.1 °C 13 °C 1012.5 hPa Calm   3.2 km/h 82% 0.0 mm 0 W/m2
04:27 16.1 °C 13 °C 1012.5 hPa North 3.2 km/h 4.8 km/h 82% 0.0 mm 0 W/m2
04:32 16.1 °C 13 °C 1012.5 hPa NE 1.4 km/h 4.8 km/h 82% 0.0 mm 0 W/m2
04:37 16.1 °C 13 °C 1012.5 hPa Calm   4.8 km/h 82% 0.0 mm 0 W/m2
04:55 16.2 °C 13.1 °C 1012.5 hPa NNE 1.4 km/h 3.2 km/h 82% 0.0 mm 0 W/m2
05:00 16.2 °C 13.1 °C 1012.5 hPa NNE 1.4 km/h 12.9 km/h 82% 0.0 mm 0 W/m2
05:05 16.2 °C 13.1 °C 1012.5 hPa NW 3.2 km/h 4.8 km/h 82% 0.0 mm 0 W/m2
05:10 16.1 °C 13 °C 1012.9 hPa ENE 1.4 km/h 12.9 km/h 82% 0.0 mm 0 W/m2
05:15 16 °C 12.9 °C 1012.9 hPa WNW 3.2 km/h 3.2 km/h 82% 0.0 mm 0 W/m2
05:20 15.9 °C 12.8 °C 1012.9 hPa SSW 1.4 km/h 6.4 km/h 82% 0.0 mm 0 W/m2
05:25 15.9 °C 12.8 °C 1012.9 hPa SW 1.4 km/h 1.6 km/h 82% 0.0 mm 0 W/m2
05:30 15.8 °C 12.7 °C 1012.9 hPa Calm   6.4 km/h 82% 0.0 mm 0 W/m2
05:35 15.7 °C 12.8 °C 1012.9 hPa ENE 1.4 km/h 1.6 km/h 83% 0.0 mm 0 W/m2
05:40 15.6 °C 12.7 °C 1012.9 hPa ESE 1.4 km/h 4.8 km/h 83% 0.0 mm 0 W/m2
05:45 15.4 °C 12.7 °C 1012.9 hPa ESE 1.4 km/h 3.2 km/h 84% 0.0 mm 0 W/m2
05:50 15.3 °C 12.6 °C 1012.9 hPa ESE 1.4 km/h 4.8 km/h 84% 0.0 mm 0 W/m2
05:55 15.2 °C 12.7 °C 1012.9 hPa East 1.4 km/h 3.2 km/h 85% 0.0 mm 0 W/m2
06:00 15.1 °C 12.6 °C 1012.9 hPa Calm     85% 0.0 mm 0 W/m2
06:19 14.7 °C 12.4 °C 1012.9 hPa ESE 3.2 km/h 4.8 km/h 86% 0.0 mm 9 W/m2
06:24 14.7 °C 12.4 °C 1012.9 hPa Calm     86% 0.0 mm 11 W/m2
06:29 14.7 °C 12.4 °C 1013.2 hPa Calm   1.6 km/h 86% 0.0 mm 14 W/m2
06:34 14.7 °C 12.2 °C 1012.9 hPa Calm   3.2 km/h 85% 0.0 mm 16 W/m2
06:39 14.7 °C 12.2 °C 1012.9 hPa SW 1.4 km/h 6.4 km/h 85% 0.0 mm 19 W/m2
06:44 14.7 °C 12.2 °C 1013.2 hPa NE 1.4 km/h 3.2 km/h 85% 0.0 mm 21 W/m2
06:49 14.7 °C 12.2 °C 1013.2 hPa Calm   3.2 km/h 85% 0.0 mm 23 W/m2
06:54 14.8 °C 12.1 °C 1013.2 hPa Calm   3.2 km/h 84% 0.0 mm 25 W/m2
06:59 14.8 °C 12.1 °C 1013.2 hPa WNW 1.4 km/h 3.2 km/h 84% 0.0 mm 26 W/m2
07:20 15 °C 12.3 °C 1013.2 hPa ESE 4.7 km/h 4.8 km/h 84% 0.0 mm 33 W/m2
07:25 15.1 °C 12.4 °C 1013.2 hPa SW 1.4 km/h 3.2 km/h 84% 0.0 mm 33 W/m2
07:30 15.1 °C 12.2 °C 1013.2 hPa SW 3.2 km/h 3.2 km/h 83% 0.0 mm 35 W/m2
07:35 15.2 °C 12.3 °C 1013.5 hPa NNW 1.4 km/h 9.7 km/h 83% 0.0 mm 35 W/m2
07:40 15.2 °C 12.3 °C 1013.5 hPa North 4.7 km/h 6.4 km/h 83% 0.0 mm 37 W/m2
07:56 15.3 °C 12.4 °C 1013.5 hPa NE 1.4 km/h 1.6 km/h 83% 0.0 mm 46 W/m2
08:01 15.4 °C 12.5 °C 1013.5 hPa West 4.7 km/h 4.8 km/h 83% 0.0 mm 58 W/m2
08:07 15.6 °C 12.7 °C 1013.5 hPa West 1.4 km/h 9.7 km/h 83% 0.0 mm 42 W/m2
08:12 15.6 °C 12.5 °C 1013.5 hPa Calm   3.2 km/h 82% 0.0 mm 44 W/m2
08:17 15.8 °C 12.7 °C 1013.5 hPa NNE 3.2 km/h 9.7 km/h 82% 0.0 mm 47 W/m2
08:22 15.9 °C 12.8 °C 1013.5 hPa West 11.1 km/h 14.5 km/h 82% 0.0 mm 49 W/m2
08:27 16 °C 12.7 °C 1013.5 hPa SW 1.4 km/h 12.9 km/h 81% 0.0 mm 56 W/m2
08:32 16.1 °C 12.8 °C 1013.5 hPa Calm   8 km/h 81% 0.0 mm 84 W/m2
08:37 16.2 °C 12.9 °C 1013.5 hPa NW 4.7 km/h 6.4 km/h 81% 0.0 mm 86 W/m2
08:42 16.2 °C 12.9 °C 1013.9 hPa NW 4.7 km/h 9.7 km/h 81% 0.0 mm 109 W/m2
08:47 16.1 °C 12.8 °C 1013.9 hPa NNW 3.2 km/h 4.8 km/h 81% 0.0 mm 72 W/m2
08:52 16.1 °C 12.8 °C 1013.9 hPa NW 4.7 km/h 12.9 km/h 81% 0.0 mm 107 W/m2
08:57 16.1 °C 13 °C 1013.9 hPa NW 1.4 km/h 4.8 km/h 82% 0.0 mm 165 W/m2
09:14 16.3 °C 13 °C 1014.2 hPa NNW 9.7 km/h 11.3 km/h 81% 0.0 mm 183 W/m2
09:19 16.4 °C 13.1 °C 1014.2 hPa West 3.2 km/h 6.4 km/h 81% 0.0 mm 197 W/m2
09:24 16.4 °C 13.1 °C 1014.2 hPa NW 1.4 km/h 11.3 km/h 81% 0.0 mm 213 W/m2
09:29 16.5 °C 13.2 °C 1014.2 hPa East 4.7 km/h 12.9 km/h 81% 0.0 mm 229 W/m2
09:34 16.6 °C 13.3 °C 1014.2 hPa NNW 6.4 km/h 9.7 km/h 81% 0.0 mm 229 W/m2
09:39 16.7 °C 13.2 °C 1014.2 hPa West 3.2 km/h 12.9 km/h 80% 0.0 mm 230 W/m2
09:44 16.7 °C 13.2 °C 1014.6 hPa ESE 1.4 km/h 11.3 km/h 80% 0.0 mm 241 W/m2
09:49 16.7 °C 13.4 °C 1014.2 hPa NW 3.2 km/h 12.9 km/h 81% 0.0 mm 239 W/m2
09:54 16.8 °C 13.5 °C 1014.2 hPa WNW 1.4 km/h 11.3 km/h 81% 0.0 mm 243 W/m2
09:59 16.9 °C 13.4 °C 1014.2 hPa Calm   12.9 km/h 80% 0.0 mm 267 W/m2
10:04 17 °C 13.5 °C 1014.6 hPa WNW 3.2 km/h 8 km/h 80% 0.0 mm 258 W/m2
10:09 17.2 °C 13.5 °C 1014.2 hPa NW 1.4 km/h 9.7 km/h 79% 0.0 mm 267 W/m2
10:14 17.2 °C 13.5 °C 1014.2 hPa West 3.2 km/h 4.8 km/h 79% 0.0 mm 283 W/m2
10:19 17.2 °C 13.5 °C 1014.2 hPa NW 3.2 km/h 6.4 km/h 79% 0.0 mm 271 W/m2
10:24 17.3 °C 13.6 °C 1014.2 hPa NW 6.4 km/h 14.5 km/h 79% 0.0 mm 287 W/m2
10:29 17.2 °C 13.5 °C 1014.2 hPa NW 4.7 km/h 11.3 km/h 79% 0.0 mm 338 W/m2
10:34 17.3 °C 13.4 °C 1014.2 hPa WSW 6.4 km/h 14.5 km/h 78% 0.0 mm 295 W/m2
10:39 17.4 °C 13.5 °C 1014.6 hPa NNE 3.2 km/h 16.1 km/h 78% 0.0 mm 294 W/m2
10:44 17.4 °C 13.5 °C 1014.2 hPa WNW 3.2 km/h 9.7 km/h 78% 0.0 mm 371 W/m2
10:49 17.6 °C 13.7 °C 1014.2 hPa SW 1.4 km/h 16.1 km/h 78% 0.0 mm 439 W/m2
10:54 17.8 °C 13.5 °C 1014.2 hPa NNW 3.2 km/h 11.3 km/h 76% 0.0 mm 341 W/m2
10:59 18.1 °C 13.8 °C 1014.2 hPa NW 4.7 km/h 8 km/h 76% 0.0 mm 445 W/m2
11:04 18.1 °C 13.6 °C 1014.2 hPa WNW 4.7 km/h 8 km/h 75% 0.0 mm 292 W/m2
11:09 18.2 °C 13.7 °C 1014.2 hPa WNW 1.4 km/h 9.7 km/h 75% 0.0 mm 297 W/m2
11:14 18.3 °C 14 °C 1014.2 hPa WNW 4.7 km/h 6.4 km/h 76% 0.0 mm 350 W/m2
11:19 18.6 °C 13.9 °C 1014.2 hPa NE 3.2 km/h 6.4 km/h 74% 0.0 mm 276 W/m2
11:24 18.4 °C 13.5 °C 1014.2 hPa West 9.7 km/h 16.1 km/h 73% 0.0 mm 302 W/m2
11:29 18.4 °C 13.5 °C 1014.2 hPa NNW 3.2 km/h 9.7 km/h 73% 0.0 mm 438 W/m2
11:34 18.7 °C 13.3 °C 1014.2 hPa WNW 7.9 km/h 14.5 km/h 71% 0.0 mm 1002 W/m2
11:54 19.1 °C 13.1 °C 1014.2 hPa NW 1.4 km/h 14.5 km/h 68% 0.0 mm 338 W/m2
11:59 18.9 °C 12.9 °C 1014.2 hPa NW 1.4 km/h 16.1 km/h 68% 0.0 mm 241 W/m2
12:04 18.8 °C 12.8 °C 1014.2 hPa NW 4.7 km/h 9.7 km/h 68% 0.0 mm 218 W/m2
12:09 18.7 °C 12.9 °C 1014.2 hPa NW 7.9 km/h 12.9 km/h 69% 0.0 mm 216 W/m2
12:14 18.6 °C 12.8 °C 1014.2 hPa WSW 4.7 km/h 12.9 km/h 69% 0.0 mm 200 W/m2
12:19 18.4 °C 12.8 °C 1014.2 hPa North 3.2 km/h 14.5 km/h 70% 0.0 mm 167 W/m2
12:24 18.4 °C 12.8 °C 1014.2 hPa WNW 1.4 km/h 6.4 km/h 70% 0.0 mm 269 W/m2
12:29 18.8 °C 13.2 °C 1013.9 hPa North 1.4 km/h 14.5 km/h 70% 0.0 mm 991 W/m2
12:34 19.3 °C 13.2 °C 1014.2 hPa WNW 1.4 km/h 9.7 km/h 68% 0.0 mm 408 W/m2
12:39 19.7 °C 13.2 °C 1013.9 hPa WNW 4.7 km/h 11.3 km/h 66% 0.0 mm 471 W/m2
12:44 19.9 °C 13.1 °C 1013.9 hPa ENE 6.4 km/h 9.7 km/h 65% 0.0 mm 969 W/m2
12:49 20.2 °C 12.9 °C 1013.9 hPa WNW 4.7 km/h 9.7 km/h 63% 0.0 mm 281 W/m2
12:54 20.1 °C 12.6 °C 1014.2 hPa WNW 6.4 km/h 11.3 km/h 62% 0.0 mm 269 W/m2
12:59 19.7 °C 12.7 °C 1014.2 hPa WNW 1.4 km/h 11.3 km/h 64% 0.0 mm 243 W/m2
13:19 20.4 °C 12.9 °C 1013.9 hPa WSW 7.9 km/h 9.7 km/h 62% 0.0 mm 404 W/m2
13:24 20.3 °C 12.8 °C 1013.9 hPa WNW 4.7 km/h 19.3 km/h 62% 0.0 mm 396 W/m2
13:29 20.3 °C 12.8 °C 1013.9 hPa NNW 6.4 km/h 16.1 km/h 62% 0.0 mm 336 W/m2
13:34 20.4 °C 13.6 °C 1013.9 hPa NW 6.4 km/h 6.4 km/h 65% 0.0 mm 1099 W/m2
13:39 20.8 °C 12.7 °C 1013.5 hPa WSW 6.4 km/h 9.7 km/h 60% 0.0 mm 332 W/m2
13:44 21 °C 13.2 °C 1013.5 hPa West 6.4 km/h 6.4 km/h 61% 0.0 mm 1192 W/m2
13:49 21.1 °C 12.2 °C 1013.5 hPa NW 4.7 km/h 11.3 km/h 57% 0.0 mm 457 W/m2
13:54 20.9 °C 12.3 °C 1013.5 hPa NNW 1.4 km/h 11.3 km/h 58% 0.0 mm 343 W/m2
13:59 20.8 °C 12.5 °C 1013.5 hPa West 6.4 km/h 9.7 km/h 59% 0.0 mm 336 W/m2
14:04 20.7 °C 12.4 °C 1013.9 hPa West 6.4 km/h 9.7 km/h 59% 0.0 mm 221 W/m2
14:09 20.7 °C 12.4 °C 1013.5 hPa West 9.7 km/h 14.5 km/h 59% 0.0 mm 1071 W/m2
14:26 20.7 °C 12.1 °C 1013.5 hPa Calm   9.7 km/h 58% 0.0 mm 227 W/m2
14:31 21.1 °C 12.5 °C 1013.9 hPa NNW 3.2 km/h 9.7 km/h 58% 0.0 mm 1027 W/m2
14:36 21.5 °C 12.1 °C 1013.5 hPa West 13 km/h 12.9 km/h 55% 0.0 mm 1062 W/m2
14:41 21.8 °C 12.6 °C 1013.5 hPa West 13 km/h 19.3 km/h 56% 0.0 mm 1116 W/m2
14:46 21.9 °C 12.5 °C 1013.5 hPa West 6.4 km/h 12.9 km/h 55% 0.0 mm 570 W/m2
14:51 21.6 °C 11.6 °C 1013.5 hPa WNW 4.7 km/h 14.5 km/h 53% 0.0 mm 285 W/m2
14:56 21.2 °C 11.5 °C 1013.5 hPa West 6.4 km/h 24.1 km/h 54% 0.0 mm 341 W/m2
15:01 21.1 °C 12 °C 1013.5 hPa West 13 km/h 12.9 km/h 56% 0.0 mm 304 W/m2
15:06 21 °C 12.4 °C 1013.5 hPa SW 1.4 km/h 24.1 km/h 58% 0.0 mm 366 W/m2
15:11 21.2 °C 12.3 °C 1013.5 hPa NW 4.7 km/h 8 km/h 57% 0.0 mm 1041 W/m2
15:16 21.7 °C 12.3 °C 1013.5 hPa NE 11.1 km/h 14.5 km/h 55% 0.0 mm 1060 W/m2
15:21 21.7 °C 12.5 °C 1013.5 hPa NNE 3.2 km/h 14.5 km/h 56% 0.0 mm 1063 W/m2
15:26 21.8 °C 12.4 °C 1013.2 hPa NW 4.7 km/h 11.3 km/h 55% 0.0 mm 984 W/m2
15:31 21.9 °C 12.5 °C 1013.5 hPa SSW 7.9 km/h 14.5 km/h 55% 0.0 mm 315 W/m2
15:36 21.7 °C 12.5 °C 1013.5 hPa NW 9.7 km/h 16.1 km/h 56% 0.0 mm 304 W/m2
15:41 21.6 °C 12.4 °C 1013.5 hPa WNW 4.7 km/h 14.5 km/h 56% 0.0 mm 267 W/m2
15:46 21.7 °C 12.8 °C 1013.2 hPa West 4.7 km/h 16.1 km/h 57% 0.0 mm 722 W/m2
15:51 21.8 °C 12.6 °C 1013.2 hPa NW 3.2 km/h 9.7 km/h 56% 0.0 mm 1000 W/m2
15:56 22 °C 12.8 °C 1013.2 hPa Calm   16.1 km/h 56% 0.0 mm 216 W/m2
16:01 22 °C 13.1 °C 1013.2 hPa NW 6.4 km/h 11.3 km/h 57% 0.0 mm 301 W/m2
16:21 21.9 °C 12.5 °C 1013.2 hPa WNW 1.4 km/h 11.3 km/h 55% 0.0 mm 264 W/m2
16:26 21.8 °C 12.4 °C 1013.2 hPa West 3.2 km/h 14.5 km/h 55% 0.0 mm 295 W/m2
16:31 21.7 °C 12.3 °C 1013.2 hPa North 3.2 km/h 4.8 km/h 55% 0.0 mm 364 W/m2
16:36 22 °C 13.1 °C 1013.2 hPa WNW 4.7 km/h 11.3 km/h 57% 0.0 mm 364 W/m2
16:41 22.2 °C 13 °C 1012.9 hPa WNW 3.2 km/h 14.5 km/h 56% 0.0 mm 795 W/m2
16:46 22.3 °C 13.1 °C 1012.9 hPa West 11.1 km/h 12.9 km/h 56% 0.0 mm 371 W/m2
16:51 21.8 °C 12.4 °C 1012.9 hPa NW 3.2 km/h 17.7 km/h 55% 0.0 mm 216 W/m2
16:56 21.7 °C 12.5 °C 1012.9 hPa West 4.7 km/h 9.7 km/h 56% 0.0 mm 742 W/m2
17:01 21.8 °C 12.6 °C 1012.9 hPa WSW 7.9 km/h 17.7 km/h 56% 0.0 mm 661 W/m2
17:06 22 °C 12.8 °C 1012.9 hPa West 3.2 km/h 14.5 km/h 56% 0.0 mm 659 W/m2
17:11 22.2 °C 12.4 °C 1012.9 hPa WNW 6.4 km/h 19.3 km/h 54% 0.0 mm 647 W/m2
17:16 22.3 °C 12.8 °C 1012.9 hPa West 4.7 km/h 4.8 km/h 55% 0.0 mm 677 W/m2
17:21 22.6 °C 12.8 °C 1012.9 hPa WNW 14.3 km/h 17.7 km/h 54% 0.0 mm 631 W/m2
17:26 22.6 °C 12.5 °C 1012.9 hPa West 4.7 km/h 11.3 km/h 53% 0.0 mm 601 W/m2
17:31 22.6 °C 12.5 °C 1012.9 hPa WNW 13 km/h 20.9 km/h 53% 0.0 mm 642 W/m2
17:36 22.2 °C 12.2 °C 1012.5 hPa NW 1.4 km/h 11.3 km/h 53% 0.0 mm 642 W/m2
17:41 22.2 °C 12.4 °C 1012.5 hPa NNW 4.7 km/h 8 km/h 54% 0.0 mm 619 W/m2
17:46 22.3 °C 12.3 °C 1012.5 hPa West 6.4 km/h 12.9 km/h 53% 0.0 mm 575 W/m2
17:51 22.4 °C 12.1 °C 1012.5 hPa West 6.4 km/h 11.3 km/h 52% 0.0 mm 580 W/m2
18:12 22.1 °C 12.4 °C 1012.5 hPa NW 4.7 km/h 6.4 km/h 54% 0.0 mm 271 W/m2
18:17 22.2 °C 12.2 °C 1012.5 hPa NW 7.9 km/h 11.3 km/h 53% 0.0 mm 360 W/m2
18:22 22.1 °C 12.4 °C 1012.5 hPa SW 4.7 km/h 14.5 km/h 54% 0.0 mm 512 W/m2
18:27 22 °C 12.3 °C 1012.5 hPa NW 1.4 km/h 11.3 km/h 54% 0.0 mm 427 W/m2
18:32 22.1 °C 12.1 °C 1012.5 hPa WSW 6.4 km/h 12.9 km/h 53% 0.0 mm 84 W/m2
18:49 21.6 °C 12.2 °C 1012.2 hPa WNW 4.7 km/h 6.4 km/h 55% 0.0 mm 111 W/m2
18:54 21.4 °C 12.8 °C 1012.2 hPa NW 3.2 km/h 3.2 km/h 58% 0.0 mm 114 W/m2
18:59 21.4 °C 13.1 °C 1012.2 hPa WNW 1.4 km/h 3.2 km/h 59% 0.0 mm 156 W/m2
19:15 21.5 °C 12.6 °C 1012.2 hPa West 4.7 km/h 8 km/h 57% 0.0 mm 225 W/m2
19:20 21.7 °C 12.3 °C 1012.2 hPa WSW 4.7 km/h 4.8 km/h 55% 0.0 mm 160 W/m2
19:25 21.7 °C 12.8 °C 1012.2 hPa WNW 1.4 km/h 8 km/h 57% 0.0 mm 207 W/m2
19:30 21.8 °C 12.6 °C 1012.2 hPa Calm   4.8 km/h 56% 0.0 mm 151 W/m2
19:35 21.8 °C 12.4 °C 1012.2 hPa NW 4.7 km/h 4.8 km/h 55% 0.0 mm 178 W/m2
19:40 21.7 °C 12.5 °C 1012.2 hPa NW 1.4 km/h 4.8 km/h 56% 0.0 mm 113 W/m2
19:45 21.6 °C 12.7 °C 1012.2 hPa Calm   3.2 km/h 57% 0.0 mm 83 W/m2
19:50 21.4 °C 12.3 °C 1012.2 hPa Calm   3.2 km/h 56% 0.0 mm 86 W/m2
19:55 21.2 °C 13.4 °C 1012.2 hPa Calm     61% 0.0 mm 47 W/m2
20:00 21 °C 13.9 °C 1012.2 hPa Calm   1.6 km/h 64% 0.0 mm 32 W/m2
20:05 20.7 °C 13.9 °C 1012.2 hPa Calm   1.6 km/h 65% 0.0 mm 30 W/m2
20:10 20.4 °C 13.8 °C 1012.2 hPa Calm     66% 0.0 mm 33 W/m2
20:16 20.2 °C 14.1 °C 1012.2 hPa Calm   1.6 km/h 68% 0.0 mm 35 W/m2
20:34 19.6 °C 14 °C 1012.2 hPa NW 1.4 km/h 1.6 km/h 70% 0.0 mm 39 W/m2
20:39 19.4 °C 13.8 °C 1012.2 hPa NW 1.4 km/h 1.6 km/h 70% 0.0 mm 30 W/m2
20:44 19.2 °C 13.6 °C 1012.2 hPa Calm     70% 0.0 mm 28 W/m2
20:49 19.1 °C 13.7 °C 1012.2 hPa NW 1.6 km/h 1.6 km/h 71% 0.0 mm 23 W/m2
20:54 18.8 °C 13.2 °C 1012.2 hPa Calm     70% 0.0 mm 19 W/m2
20:59 18.7 °C 13.3 °C 1012.2 hPa Calm     71% 0.0 mm 12 W/m2
21:04 18.4 °C 13.3 °C 1012.2 hPa Calm     72% 0.0 mm 9 W/m2
21:25 17.6 °C 13.1 °C 1012.2 hPa NW 1.4 km/h 3.2 km/h 75% 0.0 mm 0 W/m2
21:30 17.4 °C 12.7 °C 1012.2 hPa WNW 1.4 km/h 1.6 km/h 74% 0.0 mm 0 W/m2
21:35 17.2 °C 12.7 °C 1012.2 hPa Calm   1.6 km/h 75% 0.0 mm 0 W/m2
21:40 17.1 °C 12.8 °C 1012.2 hPa WNW 1.4 km/h 3.2 km/h 76% 0.0 mm 0 W/m2
21:45 16.9 °C 12.6 °C 1012.2 hPa Calm   1.6 km/h 76% 0.0 mm 0 W/m2
22:01 16.7 °C 12.6 °C 1012.5 hPa Calm     77% 0.0 mm 0 W/m2
22:06 16.6 °C 12.7 °C 1012.5 hPa Calm     78% 0.0 mm 0 W/m2
22:11 16.6 °C 12.7 °C 1012.5 hPa Calm     78% 0.0 mm 0 W/m2
22:31 16.4 °C 12.7 °C 1012.5 hPa Calm     79% 0.0 mm 0 W/m2
22:36 16.3 °C 12.7 °C 1012.5 hPa SW 1.4 km/h 1.6 km/h 79% 0.0 mm 0 W/m2
22:41 16.3 °C 12.7 °C 1012.5 hPa Calm   1.6 km/h 79% 0.0 mm 0 W/m2
22:46 16.2 °C 12.7 °C 1012.2 hPa Calm     80% 0.0 mm 0 W/m2
22:51 16.1 °C 12.6 °C 1012.2 hPa Calm     80% 0.0 mm 0 W/m2
22:56 16.1 °C 12.6 °C 1012.2 hPa Calm     80% 0.0 mm 0 W/m2
23:01 16 °C 12.7 °C 1012.2 hPa Calm     81% 0.0 mm 0 W/m2
23:06 15.9 °C 12.6 °C 1012.2 hPa Calm     81% 0.0 mm 0 W/m2
23:11 15.8 °C 12.5 °C 1012.2 hPa Calm     81% 0.0 mm 0 W/m2
23:16 15.7 °C 12.6 °C 1012.2 hPa Calm     82% 0.0 mm 0 W/m2
23:21 15.6 °C 12.7 °C 1012.2 hPa Calm     83% 0.0 mm 0 W/m2
23:26 15.4 °C 12.5 °C 1012.2 hPa Calm     83% 0.0 mm 0 W/m2
23:31 15.3 °C 12.4 °C 1012.2 hPa Calm     83% 0.0 mm 0 W/m2
23:36 15.2 °C 12.3 °C 1012.2 hPa Calm     83% 0.0 mm 0 W/m2
23:41 15.1 °C 12.4 °C 1011.9 hPa Calm     84% 0.0 mm 0 W/m2
23:46 15.1 °C 12.4 °C 1011.9 hPa Calm     84% 0.0 mm 0 W/m2
23:51 14.9 °C 12.2 °C 1011.9 hPa Calm     84% 0.0 mm 0 W/m2
23:56 14.9 °C 12.2 °C 1011.9 hPa Calm     84% 0.0 mm 0 W/m2
Juneau County Weather
Compliments of Weather Underground - 2 mb